Time,TemperatureF,DewpointF,PressureIn,WindDirection,WindDirectionDegrees,WindSpeedMPH,WindSpeedGustMPH,Humidity,HourlyPrecipIn,Conditions,Clouds,dailyrainin,SoftwareType,DateUTC
2013-01-17 00:14:00,30.5,30.0,29.82,WNW,300,0.0,-999.0,96,-99.99,,,0.06,weatherlink.com 1.10,2013-01-17 05:14:00,
2013-01-17 00:29:00,30.4,29.0,29.82,WNW,300,0.0,-999.0,96,-99.99,,,0.06,weatherlink.com 1.10,2013-01-17 05:29:00,
2013-01-17 00:44:00,30.2,29.0,29.82,WNW,300,0.0,-999.0,96,-99.99,,,0.06,weatherlink.com 1.10,2013-01-17 05:44:00,
2013-01-17 00:59:00,30.1,29.0,29.83,WNW,300,0.0,-999.0,96,-99.99,,,0.06,weatherlink.com 1.10,2013-01-17 05:59:00,
2013-01-17 01:14:00,30.1,29.0,29.83,WNW,300,0.0,-999.0,97,-99.99,,,0.06,weatherlink.com 1.10,2013-01-17 06:14:00,
2013-01-17 01:29:00,29.9,29.0,29.84,WNW,300,0.0,-999.0,97,-99.99,,,0.06,weatherlink.com 1.10,2013-01-17 06:29:00,
2013-01-17 01:44:00,29.9,29.0,29.83,WNW,300,0.0,-999.0,97,-99.99,,,0.06,weatherlink.com 1.10,2013-01-17 06:44:00,
2013-01-17 01:59:00,29.6,29.0,29.83,WNW,300,0.0,-999.0,97,-99.99,,,0.06,weatherlink.com 1.10,2013-01-17 06:59:00,
2013-01-17 02:14:00,29.3,29.0,29.84,WNW,300,0.0,-999.0,97,-99.99,,,0.06,weatherlink.com 1.10,2013-01-17 07:14:00,
2013-01-17 02:29:00,28.8,28.0,29.84,WNW,300,0.0,-999.0,96,-99.99,,,0.06,weatherlink.com 1.10,2013-01-17 07:29:00,
2013-01-17 02:44:00,28.6,28.0,29.84,WNW,300,0.0,-999.0,96,-99.99,,,0.06,weatherlink.com 1.10,2013-01-17 07:44:00,
2013-01-17 02:59:00,28.4,28.0,29.84,WNW,300,0.0,-999.0,97,-99.99,,,0.06,weatherlink.com 1.10,2013-01-17 07:59:00,
2013-01-17 03:14:00,28.4,28.0,29.83,WNW,300,0.0,-999.0,97,-99.99,,,0.06,weatherlink.com 1.10,2013-01-17 08:14:00,
2013-01-17 03:29:00,28.3,28.0,29.82,WNW,300,0.0,-999.0,97,-99.99,,,0.06,weatherlink.com 1.10,2013-01-17 08:29:00,
2013-01-17 03:44:00,28.4,28.0,29.83,WNW,300,0.0,-999.0,97,-99.99,,,0.06,weatherlink.com 1.10,2013-01-17 08:44:00,
2013-01-17 03:59:00,28.0,27.0,29.83,WNW,300,0.0,-999.0,97,-99.99,,,0.06,weatherlink.com 1.10,2013-01-17 08:59:00,
2013-01-17 04:14:00,28.0,27.0,29.82,WNW,300,0.0,-999.0,97,-99.99,,,0.06,weatherlink.com 1.10,2013-01-17 09:14:00,
2013-01-17 04:29:00,28.1,27.0,29.82,WNW,300,0.0,-999.0,97,-99.99,,,0.00,weatherlink.com 1.10,2013-01-17 09:29:00,
2013-01-17 04:44:00,28.3,28.0,29.82,WNW,300,0.0,-999.0,97,-99.99,,,0.00,weatherlink.com 1.10,2013-01-17 09:44:00,
2013-01-17 04:59:00,28.2,28.0,29.82,WNW,300,0.0,-999.0,97,-99.99,,,0.00,weatherlink.com 1.10,2013-01-17 09:59:00,
2013-01-17 05:14:00,28.2,28.0,29.84,WNW,300,0.0,-999.0,97,-99.99,,,0.00,weatherlink.com 1.10,2013-01-17 10:14:00,
2013-01-17 05:29:00,28.0,27.0,29.84,WNW,300,0.0,-999.0,97,-99.99,,,0.00,weatherlink.com 1.10,2013-01-17 10:29:00,
2013-01-17 05:44:00,27.5,27.0,29.84,WNW,300,0.0,-999.0,96,-99.99,,,0.00,weatherlink.com 1.10,2013-01-17 10:44:00,
2013-01-17 05:59:00,26.9,26.0,29.85,WNW,300,0.0,-999.0,96,-99.99,,,0.00,weatherlink.com 1.10,2013-01-17 10:59:00,
2013-01-17 06:14:00,26.3,25.0,29.85,WNW,300,0.0,-999.0,96,-99.99,,,0.00,weatherlink.com 1.10,2013-01-17 11:14:00,
2013-01-17 06:29:00,26.0,25.0,29.86,WNW,300,0.0,-999.0,96,-99.99,,,0.00,weatherlink.com 1.10,2013-01-17 11:29:00,
2013-01-17 06:44:00,25.7,25.0,29.86,WNW,300,0.0,-999.0,96,-99.99,,,0.00,weatherlink.com 1.10,2013-01-17 11:44:00,
2013-01-17 07:00:00,25.1,24.0,29.87,WNW,300,0.0,-999.0,96,-99.99,,,0.00,weatherlink.com 1.10,2013-01-17 12:00:00,
2013-01-17 07:15:00,25.1,24.0,29.88,WNW,300,0.0,-999.0,96,-99.99,,,0.00,weatherlink.com 1.10,2013-01-17 12:15:00,
2013-01-17 07:30:00,25.4,25.0,29.89,WSW,256,0.0,-999.0,97,-99.99,,,0.00,weatherlink.com 1.10,2013-01-17 12:30:00,
2013-01-17 07:45:00,26.3,26.0,29.90,WSW,256,0.0,-999.0,97,-99.99,,,0.00,weatherlink.com 1.10,2013-01-17 12:45:00,
2013-01-17 08:00:00,26.8,26.0,29.91,WSW,256,0.0,-999.0,97,-99.99,,,0.00,weatherlink.com 1.10,2013-01-17 13:00:00,
2013-01-17 08:15:00,27.1,26.0,29.91,WSW,256,0.0,-999.0,96,-99.99,,,0.00,weatherlink.com 1.10,2013-01-17 13:15:00,
2013-01-17 08:30:00,27.7,27.0,29.91,WSW,256,0.0,-999.0,97,-99.99,,,0.00,weatherlink.com 1.10,2013-01-17 13:30:00,
2013-01-17 08:45:00,28.5,28.0,29.93,WSW,256,0.0,-999.0,97,-99.99,,,0.00,weatherlink.com 1.10,2013-01-17 13:45:00,
2013-01-17 09:00:00,30.2,30.0,29.93,WSW,256,0.0,-999.0,97,-99.99,,,0.00,weatherlink.com 1.10,2013-01-17 14:00:00,
2013-01-17 09:15:00,31.6,31.0,29.93,WSW,250,0.0,-999.0,96,-99.99,,,0.00,weatherlink.com 1.10,2013-01-17 14:15:00,
2013-01-17 09:31:00,32.6,31.0,29.93,West,265,0.0,-999.0,93,-99.99,,,0.00,weatherlink.com 1.10,2013-01-17 14:31:00,
2013-01-17 09:46:00,33.3,31.0,29.94,West,261,0.0,-999.0,91,-99.99,,,0.00,weatherlink.com 1.10,2013-01-17 14:46:00,
2013-01-17 10:01:00,33.6,31.0,29.94,West,261,0.0,-999.0,91,-99.99,,,0.00,weatherlink.com 1.10,2013-01-17 15:01:00,
2013-01-17 10:16:00,35.2,33.0,29.94,WSW,248,0.0,-999.0,90,-99.99,,,0.00,weatherlink.com 1.10,2013-01-17 15:16:00,
2013-01-17 10:31:00,36.0,33.0,29.93,WSW,248,0.0,-999.0,89,-99.99,,,0.00,weatherlink.com 1.10,2013-01-17 15:31:00,
2013-01-17 10:46:00,37.2,33.0,29.94,WSW,246,0.0,-999.0,86,-99.99,,,0.01,weatherlink.com 1.10,2013-01-17 15:46:00,
2013-01-17 11:01:00,37.9,34.0,29.94,SW,219,0.0,-999.0,86,-99.99,,,0.01,weatherlink.com 1.10,2013-01-17 16:01:00,
2013-01-17 11:16:00,38.7,34.0,29.94,WNW,300,0.0,-999.0,84,-99.99,,,0.02,weatherlink.com 1.10,2013-01-17 16:16:00,
2013-01-17 11:31:00,39.3,35.0,29.95,SW,224,0.0,-999.0,83,-99.99,,,0.04,weatherlink.com 1.10,2013-01-17 16:31:00,
2013-01-17 11:46:00,39.5,34.0,29.95,SW,234,1.0,-999.0,82,-99.99,,,0.06,weatherlink.com 1.10,2013-01-17 16:46:00,
2013-01-17 12:01:00,40.1,34.0,29.94,WSW,252,3.0,-999.0,79,-99.99,,,0.09,weatherlink.com 1.10,2013-01-17 17:01:00,
2013-01-17 12:16:00,40.2,34.0,29.93,SSW,192,1.0,-999.0,77,-99.99,,,0.11,weatherlink.com 1.10,2013-01-17 17:16:00,
2013-01-17 12:31:00,40.7,33.0,29.94,WNW,284,5.0,-999.0,75,-99.99,,,0.14,weatherlink.com 1.10,2013-01-17 17:31:00,
2013-01-17 12:46:00,40.6,32.0,29.94,WSW,255,0.0,-999.0,70,-99.99,,,0.17,weatherlink.com 1.10,2013-01-17 17:46:00,
2013-01-17 13:01:00,40.4,31.0,29.94,WSW,252,1.0,-999.0,70,-99.99,,,0.20,weatherlink.com 1.10,2013-01-17 18:01:00,
2013-01-17 13:16:00,40.5,31.0,29.94,West,260,0.0,-999.0,70,-99.99,,,0.22,weatherlink.com 1.10,2013-01-17 18:16:00,
2013-01-17 13:31:00,40.4,31.0,29.96,SW,228,2.0,-999.0,70,-99.99,,,0.24,weatherlink.com 1.10,2013-01-17 18:31:00,
2013-01-17 13:46:00,40.8,31.0,29.96,West,259,4.0,-999.0,68,-99.99,,,0.26,weatherlink.com 1.10,2013-01-17 18:46:00,
2013-01-17 14:01:00,40.3,31.0,29.96,WNW,288,9.0,-999.0,69,-99.99,,,0.28,weatherlink.com 1.10,2013-01-17 19:01:00,
2013-01-17 14:16:00,40.0,29.0,29.96,ENE,76,0.0,-999.0,64,-99.99,,,0.29,weatherlink.com 1.10,2013-01-17 19:16:00,
2013-01-17 14:31:00,39.9,29.0,29.97,SE,142,0.0,-999.0,64,-99.99,,,0.30,weatherlink.com 1.10,2013-01-17 19:31:00,
2013-01-17 14:46:00,39.8,28.0,29.98,WSW,252,2.0,-999.0,64,-99.99,,,0.31,weatherlink.com 1.10,2013-01-17 19:46:00,
2013-01-17 15:01:00,39.6,28.0,29.98,WSW,254,1.0,-999.0,63,-99.99,,,0.32,weatherlink.com 1.10,2013-01-17 20:01:00,
2013-01-17 15:16:00,39.5,29.0,29.99,WNW,287,0.0,-999.0,65,-99.99,,,0.33,weatherlink.com 1.10,2013-01-17 20:16:00,
2013-01-17 15:31:00,38.9,29.0,30.00,North,355,0.0,-999.0,69,-99.99,,,0.33,weatherlink.com 1.10,2013-01-17 20:31:00,
2013-01-17 15:46:00,37.5,30.0,30.01,NE,45,0.0,-999.0,73,-99.99,,,0.34,weatherlink.com 1.10,2013-01-17 20:46:00,
2013-01-17 16:01:00,36.8,29.0,30.01,WNW,302,0.0,-999.0,74,-99.99,,,0.34,weatherlink.com 1.10,2013-01-17 21:01:00,
2013-01-17 16:16:00,36.3,29.0,30.01,NW,325,1.0,-999.0,74,-99.99,,,0.35,weatherlink.com 1.10,2013-01-17 21:16:00,
2013-01-17 16:31:00,35.8,29.0,30.01,ENE,65,0.0,-999.0,75,-99.99,,,0.35,weatherlink.com 1.10,2013-01-17 21:31:00,
2013-01-17 16:46:00,35.3,29.0,30.02,NNW,330,0.0,-999.0,77,-99.99,,,0.35,weatherlink.com 1.10,2013-01-17 21:46:00,
2013-01-17 17:02:00,34.6,29.0,30.02,NNW,330,0.0,-999.0,79,-99.99,,,0.35,weatherlink.com 1.10,2013-01-17 22:02:00,
2013-01-17 17:17:00,34.2,29.0,30.03,NNW,330,0.0,-999.0,81,-99.99,,,0.35,weatherlink.com 1.10,2013-01-17 22:17:00,
2013-01-17 17:32:00,34.3,26.0,30.05,NE,50,2.0,-999.0,73,-99.99,,,0.35,weatherlink.com 1.10,2013-01-17 22:32:00,
2013-01-17 17:47:00,34.0,26.0,30.05,NNE,30,1.0,-999.0,71,-99.99,,,0.35,weatherlink.com 1.10,2013-01-17 22:47:00,
2013-01-17 18:02:00,33.6,24.0,30.04,NNW,327,3.0,-999.0,67,-99.99,,,0.35,weatherlink.com 1.10,2013-01-17 23:02:00,
2013-01-17 18:17:00,33.4,23.0,30.05,NE,45,2.0,-999.0,66,-99.99,,,0.35,weatherlink.com 1.10,2013-01-17 23:17:00,
2013-01-17 18:32:00,33.2,23.0,30.07,ENE,76,0.0,-999.0,67,-99.99,,,0.35,weatherlink.com 1.10,2013-01-17 23:32:00,
2013-01-17 18:47:00,32.8,23.0,30.09,NW,306,0.0,-999.0,67,-99.99,,,0.35,weatherlink.com 1.10,2013-01-17 23:47:00,
2013-01-17 19:02:00,32.5,22.0,30.07,ENE,65,0.0,-999.0,65,-99.99,,,0.35,weatherlink.com 1.10,2013-01-18 00:02:00,
2013-01-17 19:17:00,32.2,22.0,30.08,North,5,0.0,-999.0,65,-99.99,,,0.35,weatherlink.com 1.10,2013-01-18 00:17:00,
2013-01-17 19:32:00,31.8,21.0,30.09,NNW,345,1.0,-999.0,65,-99.99,,,0.35,weatherlink.com 1.10,2013-01-18 00:32:00,
2013-01-17 19:47:00,31.5,21.0,30.09,NNW,344,0.0,-999.0,65,-99.99,,,0.35,weatherlink.com 1.10,2013-01-18 00:47:00,
2013-01-17 20:02:00,31.2,20.0,30.09,NW,310,0.0,-999.0,63,-99.99,,,0.35,weatherlink.com 1.10,2013-01-18 01:02:00,
2013-01-17 20:17:00,30.9,20.0,30.09,NW,304,0.0,-999.0,63,-99.99,,,0.35,weatherlink.com 1.10,2013-01-18 01:17:00,
2013-01-17 20:32:00,30.7,19.0,30.09,NNW,329,0.0,-999.0,63,-99.99,,,0.35,weatherlink.com 1.10,2013-01-18 01:32:00,
2013-01-17 20:47:00,30.4,19.0,30.09,West,280,1.0,-999.0,63,-99.99,,,0.35,weatherlink.com 1.10,2013-01-18 01:47:00,
2013-01-17 21:02:00,30.2,19.0,30.07,WNW,298,0.0,-999.0,64,-99.99,,,0.35,weatherlink.com 1.10,2013-01-18 02:02:00,
2013-01-17 21:17:00,30.1,19.0,30.07,NE,46,0.0,-999.0,63,-99.99,,,0.35,weatherlink.com 1.10,2013-01-18 02:17:00,
2013-01-17 21:32:00,29.8,18.0,30.08,WNW,295,1.0,-999.0,62,-99.99,,,0.35,weatherlink.com 1.10,2013-01-18 02:32:00,
2013-01-17 21:47:00,29.7,18.0,30.07,WNW,283,4.0,-999.0,61,-99.99,,,0.35,weatherlink.com 1.10,2013-01-18 02:47:00,
2013-01-17 22:02:00,29.5,17.0,30.06,NNW,340,0.0,-999.0,61,-99.99,,,0.35,weatherlink.com 1.10,2013-01-18 03:02:00,
2013-01-17 22:17:00,29.3,17.0,30.06,West,275,0.0,-999.0,61,-99.99,,,0.35,weatherlink.com 1.10,2013-01-18 03:17:00,
2013-01-17 22:32:00,29.2,16.0,30.07,WNW,295,0.0,-999.0,59,-99.99,,,0.35,weatherlink.com 1.10,2013-01-18 03:32:00,
2013-01-17 22:47:00,29.0,15.0,30.08,NE,53,0.0,-999.0,57,-99.99,,,0.35,weatherlink.com 1.10,2013-01-18 03:47:00,
2013-01-17 23:02:00,28.7,15.0,30.07,NE,36,0.0,-999.0,56,-99.99,,,0.35,weatherlink.com 1.10,2013-01-18 04:02:00,
2013-01-17 23:17:00,28.5,14.0,30.05,NE,40,2.0,-999.0,55,-99.99,,,0.35,weatherlink.com 1.10,2013-01-18 04:17:00,
2013-01-17 23:32:00,28.3,13.0,30.04,WNW,292,1.0,-999.0,52,-99.99,,,0.35,weatherlink.com 1.10,2013-01-18 04:32:00,
2013-01-17 23:47:00,28.1,11.0,30.04,NNW,335,2.0,-999.0,48,-99.99,,,0.35,weatherlink.com 1.10,2013-01-18 04:47:00,